This is the latest recevied weather packets stored in our database for station/object K5YNC. If no packets are shown the sender has not sent any weather packets the latest 1 day(s).
| Time | Temp. | Humidity | Pressure | Rain* | Wind** | Luminosity | Snow |
|---|---|---|---|---|---|---|---|
| 1777989446 | 22.22° C | 78% | 1004.6 hPa | 0 mm | 1.79 m/s, 144° | 135 W/m² | - |
| 1777989142 | 22.22° C | 78% | 1004.6 hPa | 0 mm | 3.13 m/s, 172° | 120 W/m² | - |
| 1777988838 | 22.22° C | 78% | 1004.6 hPa | 0 mm | 3.13 m/s, 163° | 151 W/m² | - |
| 1777988536 | 21.67° C | 78% | 1004.4 hPa | 0 mm | 2.68 m/s, 190° | 144 W/m² | - |
| 1777988232 | 21.67° C | 78% | 1004.4 hPa | 0 mm | 2.68 m/s, 190° | 130 W/m² | - |
| 1777987929 | 21.67° C | 78% | 1004.2 hPa | 0 mm | 3.13 m/s, 151° | 116 W/m² | - |
| 1777987624 | 21.67° C | 79% | 1004.6 hPa | 0 mm | 2.68 m/s, 187° | 125 W/m² | - |
| 1777987322 | 21.67° C | 79% | 1004.4 hPa | 0 mm | 2.68 m/s, 200° | 114 W/m² | - |
| 1777987019 | 21.67° C | 79% | 1004.4 hPa | 0 mm | 3.13 m/s, 185° | 90 W/m² | - |
| 1777986717 | 21.67° C | 79% | 1004.4 hPa | 0 mm | 3.13 m/s, 209° | 87 W/m² | - |
| 1777986415 | 21.11° C | 79% | 1004.5 hPa | 0 mm | 3.58 m/s, 192° | 81 W/m² | - |
| 1777986113 | 21.11° C | 79% | 1004.3 hPa | 0 mm | 3.58 m/s, 229° | 77 W/m² | - |
| 1777985809 | 21.11° C | 79% | 1004.2 hPa | 0 mm | 4.02 m/s, 193° | 71 W/m² | - |
| 1777985506 | 21.11° C | 79% | 1004.3 hPa | 0 mm | 4.47 m/s, 154° | 67 W/m² | - |
| 1777985203 | 21.11° C | 79% | 1004.2 hPa | 0 mm | 2.24 m/s, 132° | 61 W/m² | - |
| 1777984899 | 21.11° C | 80% | 1004.3 hPa | 0 mm | 3.58 m/s, 220° | 56 W/m² | - |
| 1777984595 | 21.11° C | 79% | 1004.2 hPa | 0 mm | 2.68 m/s, 202° | 47 W/m² | - |
| 1777984292 | 21.11° C | 79% | 1004 hPa | 0 mm | 2.68 m/s, 202° | 41 W/m² | - |
| 1777983989 | 21.11° C | 79% | 1004 hPa | 0 mm | 2.24 m/s, 197° | 34 W/m² | - |
| 1777983686 | 21.11° C | 79% | 1004 hPa | 0 mm | 2.24 m/s, 188° | 34 W/m² | - |
| 1777983382 | 21.11° C | 79% | 1004 hPa | 0 mm | 4.47 m/s, 184° | 30 W/m² | - |
| 1777983079 | 21.11° C | 80% | 1003.9 hPa | 0 mm | 3.13 m/s, 310° | 23 W/m² | - |
| 1777982775 | 21.11° C | 79% | 1003.9 hPa | 0 mm | 3.58 m/s, 204° | 12 W/m² | - |
| 1777982471 | 21.11° C | 79% | 1003.9 hPa | 0 mm | 3.13 m/s, 170° | 9 W/m² | - |
| 1777982166 | 21.11° C | 79% | 1003.8 hPa | 0 mm | 2.24 m/s, 172° | 7 W/m² | - |
* Rain latest hour (hover to see other rain measurements)
** Current wind speed in m/s (hover to see current wind gust speed)